Location: Unspecified
(0.0000°N, 0.0000°E)
Time: 00:24:12
(UTC+01:00)

Cosmos 1933 - Visible Passes

Search period start: 18 January 2017 00:00
Search period end: 28 January 2017 00:00
Orbit: 548 x 566 km, 82.5° (Epoch: 17 January)

Date Brightness Start Highest point End Pass type
(mag) Time Alt. Az. Time Alt. Az. Time Alt. Az.
22 Jan 6.2 21:35:16 14° SSW 21:35:16 14° SSW 21:35:53 10° SSW visible
23 Jan 5.7 21:31:46 21° SW 21:31:46 21° SW 21:33:37 10° SSW visible
24 Jan 5.4 19:52:07 10° E 19:52:07 10° E 19:52:37 10° E visible
24 Jan 5.6 21:27:50 23° W 21:28:01 23° W 21:31:18 10° SSW visible
25 Jan 5.1 19:47:44 10° ENE 19:49:41 13° E 19:51:37 10° ESE visible
25 Jan 5.9 21:23:12 11° NW 21:25:57 19° W 21:28:55 10° SW visible
26 Jan 4.9 19:45:05 10° NE 19:47:36 16° E 19:50:08 10° SE visible
26 Jan 6.2 21:21:21 10° NW 21:23:53 16° W 21:26:26 10° SW visible
27 Jan 4.7 19:42:35 10° NE 19:45:32 19° E 19:48:30 10° SE visible
27 Jan 6.5 21:19:51 10° WNW 21:21:50 13° W 21:23:47 10° WSW visible
